Location: Cahas Mountain Overlook
(37.0833°N, 80.1000°W)
Time: 09:08:09
(UTC-05:00)

S-56A Canister/Altair - Pass Details

Date: 03 December 2023
Orbit: 640 x 2488 km, 38.9° (Epoch: 25 February)

Event Time Altitude Azimuth Distance (km) Brightness Sun altitude
Rises 17:34:26 0° 284° (WNW) 3,195 11.7 -6.5°
Reaches altitude 10° 17:36:37 10° 277° (W) 2,403 11.1 -6.9°
Maximum altitude 17:41:59 47° 205° (SSW) 1,322 9.1 -7.8°
Drops below altitude 10° 17:49:43 10° 134° (SE) 3,449 10.6 -9.3°
Sets 17:53:28 0° 130° (SE) 4,742 11.3 -10.0°
